Wind_Speed
25 25 23 20 13 11 11 14 12 11 10 9 12 12 9 8 10 9 11 10 11 9 9 11 9 9 12 11 11 10 7 6 6 7 6 4 3 3
22 20 23 23 17 16 13 17 16 11 12 10 13 14 15 11 9 9 9 8 7 6 6 5 6 3 2 5 4 4 6 7 6 5 5 4 4 3
22 21 21 18 17 15 15 19 15 11 12 10 18 9 21 20 17 13 14 13 11 7 6 5 4 5 4 3 2 1 2 5 3 3 6 4 5 4
25 24 24 20 16 16 16 11 13 15 13 7 9 25 22 20 20 20 23 15 13 10 9 7 7 8 9 11 10 9 6 7 9 7 10 9 9 9
26 26 26 25 16 13 12 17 15 15 15 16 18 21 19 17 16 22 26 25 17 18 14 13 11 15 12 13 14 14 15 18 19 18 19 17 18 18
32 29 31 27 22 16 24 15 25 23 17 19 20 21 19 11 17 19 24 28 21 22 23 20 18 20 18 18 23 24 23 24 25 30 31 26 25 26
37 32 32 33 25 26 20 18 28 24 21 20 26 23 23 23 21 20 19 23 24 24 26 31 27 28 28 28 30 29 26 26 29 38 38 29 29 32
36 35 35 33 27 31 28 32 39 34 35 35 36 33 29 25 24 26 31 34 25 33 31 32 33 34 37 37 34 34 29 31 31 39 35 34 35 34
39 38 39 42 36 37 39 42 43 40 42 43 37 34 32 40 46 45 39 39 39 36 38 34 35 37 38 41 40 40 39 35 35 48 42 32 34 38
41 39 43 45 42 39 37 41 42 43 39 43 47 41 47 50 49 47 47 49 51 49 49 39 37 38 38 37 42 42 38 41 46 48 38 39 39 40
44 39 39 44 49 47 48 46 52 46 48 51 53 54 55 53 51 59 51 52 43 44 45 44 46 44 43 42 43 46 53 54 56 57 54 51 43 43
43 47 47 42 40 46 47 48 51 51 56 55 57 59 62 63 61 58 62 52 51 48 51 47 48 47 44 43 50 49 53 58 58 57 55 55 53 52
43 44 50 53 53 51 50 54 55 54 54 55 59 63 65 61 65 56 51 52 53 55 54 52 47 48 47 48 54 56 59 59 57 57 58 59 59 60
32 35 41 44 54 60 62 62 61 61 66 67 68 70 69 63 60 61 61 60 60 61 64 60 55 51 52 52 54 59 56 56 56 57 59 60 61 61
22 21 22 24 27 32 40 47 53 57 58 59 60 61 61 65 66 67 63 62 57 56 55 56 54 53 52 52 54 56 58 59 60 59 60 60 65 69
32 33 34 32 36 39 35 43 47 47 47 47 49 52 51 51 53 52 51 49 47 46 47 51 54 56 57 56 53 56 60 63 67 66 64 64 65 67
51 46 46 46 43 41 44 42 48 49 45 43 41 40 41 40 41 40 39 39 39 40 43 46 50 56 62 63 61 61 62 62 65 66 66 67 72 73
38 38 42 45 49 47 49 49 47 52 50 48 49 46 47 46 47 48 48 49 47 48 52 55 54 52 53 55 53 61 67 70 66 65 67 66 67 68
41 42 42 45 51 55 53 51 49 51 54 55 52 54 51 51 53 51 53 54 55 55 55 58 62 62 58 58 54 53 52 51 55 60 63 62 62 67
57 58 45 42 47 52 55 57 54 56 59 60 59 57 58 57 60 59 59 58 61 62 65 68 65 67 66 60 63 71 73 72 71 73 77 73 73 73
50 50 54 48 47 49 52 56 60 60 61 64 66 64 64 67 66 71 71 72 72 70 71 73 71 66 70 71 77 78 78 77 76 76 78 76 74 77
68 47 44 44 51 56 63 65 68 71 75 74 76 78 77 77 77 77 79 81 79 75 73 72 71 79 85 82 80 78 75 76 74 75 76 79 81 81
68 65 60 52 50 52 58 62 64 69 74 81 85 86 91 93 86 84 84 85 83 84 90 85 87 88 85 80 78 81 79 70 80 80 81 83 81 82
Wind_Direction
247 258 247 242 244 235 258 285 285 307 314 322 329 330 340 355 10 24 29 37 46 42 16 20 58 76 91 95 107 122 134 155 173 184 179 157 163 205
245 259 244 245 233 232 238 270 273 297 327 315 323 311 304 302 314 333 347 2 8 15 27 354 348 35 62 103 110 136 143 157 163 172 171 176 179 202
241 243 238 232 237 243 242 263 254 280 312 332 297 292 301 283 286 299 314 312 316 323 315 323 289 291 267 270 292 300 242 177 186 222 195 207 202 160
239 239 230 238 250 232 234 260 266 283 291 283 243 265 288 280 279 299 309 305 292 280 296 260 289 274 270 273 259 259 290 287 286 250 237 247 240 228
232 236 238 236 237 244 264 269 304 313 282 277 269 282 280 276 262 278 297 301 290 279 289 267 272 273 261 261 266 260 264 283 283 285 279 252 240 239
229 236 241 230 243 233 261 259 250 288 289 292 287 282 273 271 275 271 299 305 301 299 289 286 269 267 255 260 271 272 273 286 291 296 300 267 259 257
228 231 235 232 231 244 249 243 256 278 268 274 276 284 283 268 294 281 294 287 286 285 294 283 282 280 268 253 262 274 278 285 279 295 293 286 275 266
227 230 228 225 224 253 241 252 262 263 262 266 277 271 280 277 281 286 285 300 286 289 291 273 276 281 276 273 270 271 276 281 276 284 283 280 277 277
222 226 227 227 233 239 237 244 252 254 257 262 273 263 263 281 290 289 287 287 299 287 298 283 270 270 274 266 266 270 275 276 274 266 273 275 277 278
224 227 226 228 231 232 232 246 256 244 244 254 256 264 276 285 288 284 283 285 291 289 291 278 281 275 269 263 256 262 266 266 261 268 273 274 276 275
224 224 231 232 235 238 234 243 245 250 256 260 264 266 271 278 283 283 280 289 281 281 280 279 284 280 272 267 259 251 256 263 267 270 275 274 271 275
234 227 225 223 231 238 240 245 252 259 264 265 268 269 271 273 276 277 281 277 276 275 272 276 278 279 276 270 266 266 265 266 270 270 266 265 268 274
234 240 238 239 237 231 237 237 239 242 247 252 260 262 264 268 271 274 269 268 267 279 278 278 272 277 278 271 265 265 267 267 270 269 268 268 274 276
244 246 249 251 250 250 252 257 258 254 252 260 266 266 263 260 262 263 265 271 271 272 275 277 279 277 275 272 266 267 268 267 269 268 267 269 273 277
254 257 260 260 264 262 259 258 258 260 262 264 264 264 265 266 268 268 270 271 272 272 275 277 276 276 275 272 271 269 267 267 267 270 274 275 279 281
277 277 281 270 256 260 265 262 261 260 260 260 262 262 260 264 266 269 270 271 276 277 281 285 283 281 280 277 274 272 269 269 273 276 276 276 277 279
266 272 272 269 269 269 265 262 265 267 269 266 264 263 266 272 271 270 274 277 279 277 284 293 291 285 285 281 273 269 269 271 272 273 274 276 279 282
269 265 269 267 268 269 270 270 263 262 271 269 267 268 270 269 271 272 272 275 278 282 283 284 290 291 295 292 284 278 274 271 270 273 274 274 276 280
261 273 275 277 268 266 267 268 264 266 268 264 266 266 269 270 271 274 278 278 277 278 279 289 286 287 291 295 287 293 288 279 278 276 276 275 282 288
269 273 270 268 272 276 268 265 264 269 269 268 270 269 269 268 270 270 274 275 278 276 280 283 286 279 282 286 290 292 289 289 288 285 285 286 281 284
278 272 281 277 280 271 264 263 265 265 265 268 267 266 270 273 271 271 271 275 277 276 279 283 280 277 279 280 283 286 284 284 284 283 279 283 284 286
286 276 274 275 283 272 266 270 271 268 267 272 273 272 270 273 274 275 275 273 275 276 279 282 279 280 279 282 283 282 282 282 282 281 282 283 287 287
277 287 282 277 273 273 269 263 263 267 266 268 271 271 270 274 272 272 270 272 274 275 279 279 280 281 283 281 278 277 281 278 281 280 281 284 287 285
Height
10977 10977 10978 10981 10983 10983 10985 10985 10983 10983 10982 10982 10982 10980 10979 10976 10974 10972 10970 10969 10968 10968 10969 10968 10968 10968 10967 10968 10968 10968 10969 10970 10971 10973 10974 10974 10974 10974
10973 10973 10974 10977 10980 10980 10981 10982 10981 10982 10983 10984 10979 10977 10980 10979 10976 10973 10971 10970 10970 10969 10969 10970 10970 10970 10970 10970 10971 10971 10971 10972 10973 10973 10974 10974 10974 10973
10968 10970 10971 10973 10976 10977 10978 10979 10980 10981 10984 10983 10962 10966 10976 10980 10976 10973 10972 10971 10970 10969 10969 10969 10970 10971 10972 10972 10972 10972 10972 10972 10972 10972 10972 10972 10972 10972
10963 10965 10968 10970 10972 10974 10976 10977 10979 10981 10983 10985 10983 10978 10978 10979 10973 10971 10970 10969 10968 10968 10967 10968 10969 10970 10970 10971 10971 10971 10972 10972 10971 10970 10969 10969 10969 10969
10957 10961 10964 10966 10969 10970 10974 10977 10980 10979 10980 10982 10982 10980 10977 10974 10971 10970 10969 10967 10966 10965 10965 10965 10965 10966 10967 10968 10968 10968 10969 10969 10969 10968 10968 10966 10965 10964
10950 10954 10958 10962 10963 10964 10973 10981 10955 10978 10973 10972 10971 10971 10970 10969 10968 10967 10967 10964 10962 10963 10963 10962 10962 10962 10962 10963 10963 10964 10963 10963 10962 10962 10961 10961 10961 10960
10941 10945 10950 10954 10957 10960 10965 10971 10973 10970 10967 10965 10963 10963 10964 10964 10965 10965 10964 10963 10961 10962 10961 10960 10958 10958 10957 10957 10957 10958 10957 10956 10956 10955 10954 10953 10954 10954
10932 10937 10942 10947 10950 10952 10955 10957 10961 10960 10960 10958 10957 10956 10957 10958 10958 10960 10959 10959 10959 10956 10955 10953 10953 10953 10951 10950 10950 10950 10951 10951 10950 10949 10947 10945 10944 10945
10922 10927 10932 10937 10939 10943 10946 10948 10949 10949 10948 10949 10949 10950 10950 10950 10950 10951 10951 10951 10949 10947 10946 10945 10944 10945 10944 10942 10941 10942 10942 10943 10942 10941 10938 10936 10936 10935
10914 10917 10920 10924 10927 10931 10935 10938 10938 10938 10940 10941 10941 10942 10942 10942 10940 10941 10941 10941 10939 10937 10937 10936 10935 10935 10934 10935 10934 10932 10933 10932 10932 10931 10928 10927 10926 10926
10904 10909 10911 10913 10916 10920 10923 10924 10927 10928 10930 10931 10931 10933 10934 10935 10932 10928 10928 10930 10929 10927 10926 10928 10925 10925 10923 10923 10924 10925 10923 10921 10920 10920 10918 10918 10917 10917
10898 10900 10902 10905 10906 10910 10913 10915 10916 10917 10917 10919 10920 10920 10920 10920 10920 10920 10920 10918 10918 10915 10913 10916 10915 10912 10913 10912 10907 10912 10911 10909 10908 10906 10905 10905 10904 10903
10888 10891 10893 10895 10896 10899 10901 10904 10906 10906 10905 10907 10908 10908 10907 10907 10906 10906 10905 10905 10905 10904 10898 10903 10901 10899 10898 10900 10893 10895 10896 10894 10894 10892 10891 10891 10890 10889
10881 10883 10883 10887 10888 10889 10889 10890 10891 10892 10892 10891 10891 10891 10892 10893 10893 10890 10890 10891 10890 10890 10885 10887 10886 10884 10883 10885 10884 10880 10879 10879 10878 10877 10876 10875 10874 10873
10875 10876 10875 10877 10879 10879 10880 10880 10880 10880 10880 10879 10877 10876 10875 10876 10875 10875 10875 10875 10875 10874 10872 10872 10871 10869 10868 10867 10868 10869 10865 10863 10864 10863 10859 10859 10857 10855
10865 10866 10866 10869 10868 10869 10868 10868 10868 10867 10866 10865 10863 10862 10862 10863 10863 10863 10863 10862 10862 10861 10860 10859 10857 10855 10853 10852 10851 10853 10851 10850 10845 10846 10843 10841 10839 10836
10854 10855 10853 10853 10854 10854 10855 10854 10854 10854 10853 10852 10851 10850 10851 10850 10849 10849 10849 10848 10848 10847 10846 10845 10843 10840 10838 10835 10834 10832 10832 10831 10829 10826 10826 10823 10821 10817
10840 10840 10838 10837 10837 10837 10838 10840 10838 10840 10840 10838 10838 10837 10836 10836 10836 10836 10835 10834 10834 10833 10831 10829 10827 10823 10820 10816 10813 10813 10811 10809 10809 10806 10805 10804 10801 10798
10825 10826 10825 10824 10824 10823 10823 10824 10824 10823 10822 10823 10823 10823 10821 10821 10821 10820 10820 10818 10818 10817 10815 10813 10807 10803 10803 10799 10797 10794 10790 10788 10788 10785 10786 10784 10782 10777
10808 10808 10808 10807 10808 10808 10807 10807 10807 10807 10807 10806 10804 10803 10803 10804 10803 10802 10801 10800 10798 10797 10795 10793 10793 10787 10783 10782 10779 10776 10775 10773 10771 10766 10764 10762 10759 10755
10791 10789 10788 10788 10789 10787 10787 10788 10788 10787 10786 10786 10784 10782 10782 10782 10780 10778 10778 10777 10775 10774 10772 10772 10769 10766 10763 10762 10758 10757 10749 10752 10748 10743 10741 10737 10736 10731
10773 10771 10769 10769 10769 10768 10768 10767 10766 10765 10764 10762 10761 10761 10759 10758 10758 10756 10754 10752 10750 10749 10748 10747 10747 10743 10741 10739 10735 10734 10732 10721 10723 10721 10719 10715 10709 10707
10750 10750 10749 10750 10750 10750 10749 10748 10747 10746 10744 10741 10738 10737 10735 10733 10733 10730 10728 10727 10725 10723 10723 10724 10722 10718 10715 10712 10711 10708 10708 10709 10695 10696 10696 10692 10688 10683